When you browse on this site, cookies collect data to enhance your experience and personalize the content and advertising you see.
Visit our Privacy Policy to learn more. By continuing to use the site, you agree to this use of cookies and data.
  • In France
  • List of Countries
  • For 7 days
  • Water Temperature
  • Satellite Maps
  • Weather Map
  • Weather Widgets
  • user-avatar
    Login

    Hourly Weather Mekshino

    Today, 19 November, Monday

    Time Temperature Precipitation Wind Pressure Humidity
    00:00 +1°C° 0 mm 4 mps 765 mmHg 80%
    01:00 0°C° 0 mm 4 mps 766 mmHg 81%
    02:00 0°C° 0 mm 4 mps 766 mmHg 82%
    03:00 0°C° 0 mm 4 mps 766 mmHg 83%
    04:00 0°C° 0 mm 3 mps 767 mmHg 84%
    05:00 0°C° 0 mm 3 mps 767 mmHg 85%
    06:00 0°C° 0 mm 3 mps 767 mmHg 85%
    07:00 0°C° 0 mm 3 mps 767 mmHg 85%
    08:00 -2°C° 0 mm 4 mps 768 mmHg 84%
    09:00 -1°C° 0 mm 3 mps 768 mmHg 83%
    10:00 0°C° 0 mm 3 mps 768 mmHg 81%
    11:00 0°C° 0 mm 3 mps 769 mmHg 80%
    12:00 0°C° 0 mm 3 mps 769 mmHg 79%
    13:00 0°C° 0 mm 3 mps 769 mmHg 79%
    14:00 0°C° 0 mm 3 mps 769 mmHg 78%
    15:00 -1°C° 0 mm 2 mps 769 mmHg 80%
    16:00 -1°C° 0 mm 2 mps 769 mmHg 83%
    17:00 -2°C° 0 mm 2 mps 769 mmHg 86%
    18:00 -2°C° 0 mm 2 mps 769 mmHg 85%
    19:00 -2°C° 0 mm 2 mps 769 mmHg 85%
    20:00 -3°C° 0 mm 2 mps 769 mmHg 85%
    21:00 -3°C° 0 mm 2 mps 769 mmHg 84%
    22:00 -1°C° 0 mm 1 mps 769 mmHg 84%
    23:00 -1°C° 0 mm 1 mps 769 mmHg 84%

    Tomorrow, 20 November, Tuesday

    Time Temperature Precipitation Wind Pressure Humidity
    00:00 -1°C° 0 mm 1 mps 769 mmHg 84%
    01:00 -1°C° 0 mm 1 mps 768 mmHg 83%
    02:00 -1°C° 0 mm 1 mps 768 mmHg 83%
    03:00 -1°C° 0 mm 1 mps 768 mmHg 82%
    04:00 -1°C° 0 mm 1 mps 768 mmHg 81%
    05:00 -1°C° 0 mm 1 mps 767 mmHg 80%
    06:00 -2°C° 0 mm 0 mps 767 mmHg 79%
    07:00 -2°C° 0 mm 0 mps 767 mmHg 78%
    08:00 -2°C° 0 mm 0 mps 766 mmHg 77%
    09:00 -2°C° 0 mm 0 mps 766 mmHg 73%
    10:00 0°C° 0 mm 1 mps 766 mmHg 68%
    11:00 +1°C° 0 mm 1 mps 766 mmHg 64%
    12:00 +1°C° 0 mm 1 mps 766 mmHg 63%
    13:00 +1°C° 0 mm 1 mps 765 mmHg 62%
    14:00 +2°C° 0 mm 1 mps 765 mmHg 61%
    15:00 +1°C° 0 mm 1 mps 765 mmHg 65%
    16:00 -2°C° 0 mm 2 mps 765 mmHg 70%
    17:00 -2°C° 0 mm 2 mps 764 mmHg 74%
    18:00 -2°C° 0 mm 2 mps 764 mmHg 76%
    19:00 -2°C° 0 mm 2 mps 764 mmHg 79%
    20:00 -2°C° 0 mm 2 mps 764 mmHg 81%
    21:00 -2°C° 0 mm 2 mps 764 mmHg 83%
    22:00 -2°C° 0 mm 2 mps 764 mmHg 86%
    23:00 -2°C° 0 mm 2 mps 764 mmHg 89%

    Day after tomorrow, 21 November, Wednesday

    Time Temperature Precipitation Wind Pressure Humidity
    00:00 -2°C° 0 mm 2 mps 764 mmHg 90%
    01:00 -2°C° 0 mm 2 mps 764 mmHg 91%
    02:00 -1°C° 0 mm 2 mps 764 mmHg 92%
    03:00 -1°C° 0 mm 2 mps 765 mmHg 92%
    04:00 -1°C° 0 mm 2 mps 765 mmHg 92%
    05:00 -1°C° 0 mm 2 mps 765 mmHg 91%
    06:00 -1°C° 0 mm 2 mps 765 mmHg 91%
    07:00 -1°C° 0 mm 2 mps 765 mmHg 90%
    08:00 -1°C° 0 mm 2 mps 765 mmHg 90%
    09:00 -1°C° 0 mm 2 mps 765 mmHg 87%
    10:00 +1°C° 0 mm 2 mps 766 mmHg 84%
    11:00 +1°C° 0 mm 2 mps 766 mmHg 81%
    12:00 +1°C° 0 mm 2 mps 766 mmHg 81%
    13:00 +1°C° 0 mm 2 mps 766 mmHg 82%
    14:00 +2°C° 0 mm 1 mps 766 mmHg 82%
    15:00 -1°C° 0 mm 2 mps 766 mmHg 85%
    16:00 -2°C° 0 mm 2 mps 766 mmHg 88%
    17:00 -2°C° 0 mm 2 mps 765 mmHg 92%
    18:00 -3°C° 0 mm 2 mps 765 mmHg 92%
    19:00 -3°C° 0 mm 2 mps 765 mmHg 92%
    20:00 -3°C° 0 mm 2 mps 765 mmHg 92%
    21:00 -3°C° 0 mm 2 mps 765 mmHg 92%
    22:00 -3°C° 0 mm 2 mps 765 mmHg 92%
    23:00 -3°C° 0 mm 2 mps 765 mmHg 92%

    22 November, Thursday

    Time Temperature Precipitation Wind Pressure Humidity
    00:00 -3°C° 0 mm 2 mps 765 mmHg 91%
    01:00 -4°C° 0 mm 3 mps 764 mmHg 91%
    02:00 -4°C° 0 mm 3 mps 764 mmHg 90%
    03:00 -4°C° 0 mm 3 mps 764 mmHg 89%
    04:00 -4°C° 0 mm 3 mps 763 mmHg 87%
    05:00 -4°C° 0 mm 4 mps 763 mmHg 86%
    06:00 -4°C° 0 mm 4 mps 763 mmHg 85%
    07:00 -4°C° 0 mm 4 mps 763 mmHg 85%
    08:00 -4°C° 0 mm 4 mps 762 mmHg 84%
    09:00 -3°C° 0 mm 4 mps 762 mmHg 82%
    10:00 -2°C° 0 mm 4 mps 762 mmHg 79%
    11:00 -1°C° 0 mm 5 mps 762 mmHg 76%
    12:00 -1°C° 0 mm 5 mps 761 mmHg 77%
    13:00 -1°C° 0 mm 5 mps 761 mmHg 78%
    14:00 -1°C° 0 mm 5 mps 761 mmHg 79%
    15:00 -1°C° 0 mm 4 mps 761 mmHg 82%
    16:00 -1°C° 0 mm 4 mps 761 mmHg 85%
    17:00 -2°C° 0 mm 4 mps 761 mmHg 88%
    18:00 -1°C° 0 mm 3 mps 761 mmHg 90%
    19:00 -1°C° 0 mm 3 mps 762 mmHg 91%
    20:00 -1°C° 0 mm 3 mps 762 mmHg 93%
    21:00 -2°C° 0 mm 2 mps 762 mmHg 94%
    22:00 -2°C° 0 mm 2 mps 762 mmHg 95%
    23:00 -2°C° 0 mm 2 mps 762 mmHg 96%

    23 November, Friday

    Time Temperature Precipitation Wind Pressure Humidity
    00:00 -2°C° 0 mm 2 mps 763 mmHg 96%
    01:00 -2°C° 0 mm 2 mps 763 mmHg 96%
    02:00 0°C° 0 mm 1 mps 763 mmHg 95%
    03:00 0°C° 0 mm 1 mps 763 mmHg 95%
    04:00 0°C° 0 mm 1 mps 763 mmHg 95%
    05:00 0°C° 0 mm 1 mps 763 mmHg 95%
    06:00 -2°C° 0 mm 2 mps 763 mmHg 95%
    07:00 -2°C° 0 mm 2 mps 763 mmHg 95%
    08:00 -2°C° 0 mm 2 mps 763 mmHg 95%
    09:00 -2°C° 0 mm 2 mps 763 mmHg 93%
    10:00 -1°C° 0 mm 3 mps 763 mmHg 91%
    11:00 0°C° 0 mm 3 mps 763 mmHg 89%
    12:00 0°C° 0 mm 3 mps 763 mmHg 88%
    13:00 -1°C° 0 mm 4 mps 762 mmHg 87%
    14:00 -1°C° 0 mm 4 mps 762 mmHg 87%
    15:00 -1°C° 0 mm 4 mps 762 mmHg 86%
    16:00 -1°C° 0 mm 4 mps 761 mmHg 86%
    17:00 -1°C° 0 mm 4 mps 761 mmHg 85%
    18:00 -1°C° 0 mm 4 mps 761 mmHg 85%
    19:00 -1°C° 0 mm 4 mps 760 mmHg 86%
    20:00 -1°C° 0 mm 4 mps 760 mmHg 86%
    21:00 -2°C° 0 mm 4 mps 760 mmHg 86%
    22:00 -2°C° 0 mm 4 mps 759 mmHg 86%
    23:00 -2°C° 0 mm 4 mps 759 mmHg 86%

    24 November, Saturday

    Time Temperature Precipitation Wind Pressure Humidity
    00:00 -2°C° 0 mm 4 mps 759 mmHg 85%
    01:00 -2°C° 0 mm 4 mps 758 mmHg 85%
    02:00 -3°C° 0 mm 4 mps 758 mmHg 85%
    03:00 -3°C° 0 mm 4 mps 758 mmHg 85%
    04:00 -3°C° 0 mm 4 mps 757 mmHg 85%
    05:00 -2°C° 0 mm 4 mps 757 mmHg 86%
    06:00 -2°C° 0 mm 4 mps 757 mmHg 86%
    07:00 -2°C° 0 mm 4 mps 757 mmHg 86%
    08:00 -2°C° 0 mm 4 mps 757 mmHg 86%
    09:00 -2°C° 0 mm 4 mps 756 mmHg 86%
    10:00 -2°C° 0 mm 4 mps 756 mmHg 85%
    11:00 -1°C° 0 mm 3 mps 756 mmHg 84%
    12:00 -1°C° 0 mm 3 mps 756 mmHg 84%
    13:00 -1°C° 0 mm 3 mps 756 mmHg 84%
    14:00 0°C° 0 mm 3 mps 755 mmHg 84%
    15:00 -1°C° 0 mm 3 mps 755 mmHg 85%
    16:00 -1°C° 0 mm 3 mps 755 mmHg 85%
    17:00 -1°C° 0 mm 3 mps 755 mmHg 86%
    18:00 -1°C° 0 mm 2 mps 755 mmHg 86%
    19:00 -1°C° 0 mm 2 mps 755 mmHg 87%
    20:00 -1°C° 0 mm 2 mps 755 mmHg 87%
    21:00 -1°C° 0 mm 2 mps 755 mmHg 88%
    22:00 -1°C° 0 mm 2 mps 755 mmHg 89%
    23:00 -1°C° 0 mm 2 mps 755 mmHg 90%
    Show more